Terug naar catalogus

FENGYUN 1C DEB

ActiefPO
NORAD 31281·DEBRIS·🇨🇳 China

Gelanceerd May 10, 1999 vanaf Taiyuan Satellite Launch Center

Loading…

Volgende Passages (komende 24 uur)

TLE

VersSource: Space-Track

Epoch: Sep 12, 2026, 07:18 UTC

1 31281U 99025BNP 26255.30443645  .00042953  00000-0  99060-3 0  9999
2 31281  98.4051  70.2719 0070205 226.6629 132.8750 15.39838556 38793

Volg FENGYUN 1C DEB in realtime met AllMySat

Download on the App Store